Radiation Dose at Monitoring Post of Fukushima Daini Nuclear Power Station
Date,Time,MP-1(microSv/h),MP-2(microSv/h),MP-3(microSv/h),MP-4(microSv/h),MP-5(microSv/h),MP-6(microSv/h),MP-7(microSv/h),Wind Direction,Wind Velocity(m/s),Rain
2019/05/18,00:00,0.196,0.184,0.299,0.282,0.271,0.150,0.092,south-southwest,7.0,No
2019/05/18,00:10,0.196,0.185,0.298,0.281,0.273,0.151,0.091,south-southwest,6.8,No
2019/05/18,00:20,0.198,0.184,0.298,0.280,0.272,0.150,0.092,south-southwest,6.6,No
2019/05/18,00:30,0.195,0.184,0.299,0.280,0.272,0.150,0.091,south-southwest,6.5,No
2019/05/18,00:40,0.197,0.184,0.297,0.282,0.272,0.149,0.091,south-southwest,6.8,No
2019/05/18,00:50,0.197,0.184,0.300,0.280,0.272,0.150,0.092,south-southwest,7.0,No
2019/05/18,01:00,0.197,0.185,0.297,0.283,0.275,0.149,0.092,south-southwest,6.5,No
2019/05/18,01:10,0.196,0.184,0.300,0.281,0.272,0.151,0.091,south-southwest,6.2,No
2019/05/18,01:20,0.195,0.184,0.298,0.283,0.275,0.150,0.091,south-southwest,5.9,No
2019/05/18,01:30,0.197,0.184,0.298,0.283,0.271,0.149,0.091,south-southwest,5.9,No
2019/05/18,01:40,0.195,0.184,0.300,0.280,0.274,0.149,0.092,south-southwest,5.4,No
2019/05/18,01:50,0.196,0.184,0.298,0.281,0.272,0.149,0.092,south-southwest,4.8,No
2019/05/18,02:00,0.196,0.184,0.300,0.280,0.273,0.151,0.091,south-southwest,4.4,No
2019/05/18,02:10,0.196,0.184,0.298,0.282,0.273,0.149,0.092,southwest,4.8,No
2019/05/18,02:20,0.196,0.184,0.297,0.281,0.272,0.151,0.092,south-southwest,4.2,No
2019/05/18,02:30,0.196,0.184,0.300,0.282,0.274,0.150,0.090,south-southwest,4.0,No
2019/05/18,02:40,0.196,0.184,0.298,0.282,0.270,0.149,0.092,southwest,5.1,No
2019/05/18,02:50,0.196,0.185,0.298,0.281,0.272,0.149,0.091,south-southwest,4.4,No
2019/05/18,03:00,0.196,0.184,0.298,0.282,0.272,0.150,0.091,south-southwest,3.9,No
2019/05/18,03:10,0.197,0.184,0.299,0.281,0.274,0.150,0.092,south-southwest,4.1,No
2019/05/18,03:20,0.197,0.184,0.300,0.281,0.272,0.150,0.091,south-southwest,3.9,No
2019/05/18,03:30,0.197,0.184,0.298,0.282,0.273,0.150,0.092,south-southwest,3.5,No
2019/05/18,03:40,0.196,0.184,0.299,0.281,0.275,0.148,0.092,south-southwest,3.3,No
2019/05/18,03:50,0.196,0.184,0.299,0.281,0.272,0.149,0.092,south-southwest,3.1,No
2019/05/18,04:00,0.197,0.183,0.298,0.283,0.274,0.149,0.092,south-southwest,3.6,No
2019/05/18,04:10,0.195,0.185,0.299,0.281,0.272,0.150,0.092,south-southwest,3.6,No
2019/05/18,04:20,0.197,0.185,0.298,0.280,0.274,0.149,0.091,south-southwest,3.2,No
2019/05/18,04:30,0.197,0.183,0.298,0.280,0.273,0.150,0.092,south,3.0,No
2019/05/18,04:40,0.196,0.184,0.299,0.281,0.272,0.149,0.092,south,2.4,No
2019/05/18,04:50,0.197,0.183,0.299,0.281,0.274,0.149,0.092,south,2.9,No
2019/05/18,05:00,0.196,0.184,0.300,0.282,0.272,0.149,0.092,south,3.0,No
2019/05/18,05:10,0.197,0.184,0.299,0.281,0.274,0.149,0.091,south,3.4,No
2019/05/18,05:20,0.197,0.184,0.298,0.281,0.273,0.150,0.092,south,1.6,No
2019/05/18,05:30,0.195,0.184,0.299,0.281,0.273,0.149,0.092,south,1.9,No
2019/05/18,05:40,0.197,0.183,0.298,0.282,0.271,0.149,0.091,south,3.4,No
2019/05/18,05:50,0.196,0.184,0.299,0.281,0.273,0.149,0.091,south,1.9,No
2019/05/18,06:00,0.197,0.182,0.299,0.281,0.271,0.150,0.092,south-southwest,2.1,No
2019/05/18,06:10,0.196,0.183,0.298,0.282,0.272,0.149,0.091,south,5.0,No
2019/05/18,06:20,0.197,0.183,0.300,0.281,0.271,0.149,0.092,south,4.8,No
2019/05/18,06:30,0.197,0.184,0.297,0.284,0.273,0.149,0.091,south,4.1,No
2019/05/18,06:40,0.196,0.184,0.299,0.279,0.271,0.150,0.092,south,4.1,No
2019/05/18,06:50,0.197,0.183,0.297,0.282,0.272,0.150,0.091,south,3.8,No
2019/05/18,07:00,0.196,0.182,0.300,0.279,0.270,0.149,0.091,south,4.3,No
2019/05/18,07:10,0.198,0.184,0.296,0.279,0.274,0.149,0.092,south,4.3,No
2019/05/18,07:20,0.196,0.184,0.296,0.283,0.271,0.149,0.092,south,5.1,No
2019/05/18,07:30,0.197,0.181,0.298,0.279,0.273,0.150,0.091,south,6.2,No
2019/05/18,07:40,0.196,0.182,0.297,0.280,0.272,0.150,0.092,south,6.8,No
2019/05/18,07:50,0.195,0.184,0.295,0.281,0.270,0.150,0.091,south,6.5,No
2019/05/18,08:00,0.196,0.183,0.295,0.279,0.274,0.149,0.091,south,6.5,No
2019/05/18,08:10,0.196,0.183,0.299,0.278,0.272,0.148,0.090,south,6.4,No
2019/05/18,08:20,0.195,0.183,0.296,0.281,0.270,0.150,0.091,south,6.7,No
2019/05/18,08:30,0.198,0.183,0.299,0.282,0.272,0.149,0.091,south-southeast,6.2,No
2019/05/18,08:40,0.196,0.183,0.298,0.281,0.272,0.149,0.091,south-southeast,7.0,No
2019/05/18,08:50,0.194,0.182,0.296,0.277,0.271,0.150,0.091,south,7.8,No
2019/05/18,09:00,0.194,0.183,0.300,0.278,0.270,0.149,0.090,south-southeast,6.7,No
2019/05/18,09:10,0.196,0.184,0.298,0.281,0.272,0.148,0.091,south-southeast,6.6,No
2019/05/18,09:20,0.196,0.184,0.297,0.283,0.272,0.149,0.091,south,7.5,No
2019/05/18,09:30,0.195,0.183,0.301,0.280,0.271,0.149,0.091,south-southeast,8.1,No
2019/05/18,09:40,0.194,0.182,0.298,0.279,0.270,0.149,0.091,south-southeast,8.7,No
2019/05/18,09:50,0.193,0.182,0.297,0.279,0.273,0.149,0.090,south-southeast,7.7,No
2019/05/18,10:00,0.197,0.184,0.301,0.277,0.274,0.150,0.091,south-southeast,9.2,No
2019/05/18,10:10,0.197,0.184,0.298,0.282,0.271,0.150,0.091,south-southeast,8.1,No
2019/05/18,10:20,0.195,0.183,0.295,0.282,0.270,0.148,0.091,south-southeast,8.9,No
2019/05/18,10:30,0.194,0.184,0.297,0.281,0.272,0.150,0.090,south-southeast,9.3,No
2019/05/18,10:40,0.195,0.183,0.300,0.279,0.274,0.150,0.091,south-southeast,8.4,No
2019/05/18,10:50,0.198,0.185,0.298,0.279,0.273,0.150,0.091,southeast,8.1,No
2019/05/18,11:00,0.197,0.185,0.296,0.278,0.272,0.149,0.091,south-southeast,9.3,No
2019/05/18,11:10,0.195,0.183,0.296,0.281,0.269,0.150,0.090,south-southeast,8.4,No
2019/05/18,11:20,0.194,0.185,0.295,0.282,0.272,0.150,0.092,south-southeast,9.0,No
2019/05/18,11:30,0.194,0.184,0.298,0.281,0.274,0.149,0.091,south-southeast,8.7,No
2019/05/18,11:40,0.198,0.185,0.299,0.282,0.272,0.148,0.091,south-southeast,8.7,No
2019/05/18,11:50,0.197,0.184,0.300,0.279,0.270,0.150,0.092,south-southeast,9.2,No
2019/05/18,12:00,0.196,0.186,0.296,0.281,0.270,0.150,0.092,south-southeast,8.1,No
2019/05/18,12:10,0.195,0.185,0.296,0.284,0.274,0.150,0.091,south-southeast,9.2,No
2019/05/18,12:20,0.195,0.184,0.298,0.282,0.273,0.150,0.091,south-southeast,8.1,No
2019/05/18,12:30,0.198,0.183,0.300,0.281,0.273,0.150,0.091,south-southeast,8.5,No
2019/05/18,12:40,0.198,0.185,0.299,0.280,0.271,0.150,0.092,south-southeast,9.0,No
2019/05/18,12:50,0.196,0.185,0.297,0.281,0.270,0.149,0.091,south-southeast,9.0,No
2019/05/18,13:00,0.194,0.183,0.296,0.285,0.275,0.151,0.091,south-southeast,7.9,No
2019/05/18,13:10,0.196,0.185,0.295,0.283,0.273,0.151,0.091,south-southeast,8.5,No
2019/05/18,13:20,0.198,0.186,0.299,0.282,0.271,0.150,0.091,south-southeast,9.3,No
2019/05/18,13:30,0.197,0.185,0.302,0.280,0.272,0.150,0.091,south-southeast,9.0,No
2019/05/18,13:40,0.196,0.183,0.299,0.280,0.270,0.150,0.091,south-southeast,8.2,No
2019/05/18,13:50,0.195,0.184,0.297,0.284,0.272,0.149,0.092,south-southeast,9.2,No
2019/05/18,14:00,0.195,0.185,0.297,0.283,0.275,0.150,0.091,south-southeast,8.1,No
2019/05/18,14:10,0.197,0.185,0.297,0.281,0.273,0.149,0.091,south-southeast,9.2,No
2019/05/18,14:20,0.199,0.184,0.299,0.280,0.271,0.149,0.090,south-southeast,8.6,No
2019/05/18,14:30,0.197,0.185,0.302,0.283,0.271,0.150,0.092,south-southeast,8.4,No
2019/05/18,14:40,0.196,0.187,0.301,0.285,0.272,0.150,0.091,south-southeast,9.0,No
2019/05/18,14:50,0.195,0.184,0.299,0.281,0.274,0.150,0.091,south-southeast,7.1,No
2019/05/18,15:00,0.196,0.184,0.297,0.282,0.275,0.151,0.092,south-southeast,7.3,No
2019/05/18,15:10,0.199,0.186,0.296,0.283,0.272,0.151,0.091,south-southeast,6.4,No
2019/05/18,15:20,0.197,0.185,0.301,0.283,0.271,0.150,0.090,south,8.4,No
2019/05/18,15:30,0.195,0.184,0.300,0.285,0.271,0.150,0.092,south-southeast,8.4,No
2019/05/18,15:40,0.195,0.185,0.300,0.283,0.276,0.151,0.091,south-southeast,7.9,No
2019/05/18,15:50,0.197,0.185,0.298,0.283,0.273,0.150,0.091,south,8.4,No
2019/05/18,16:00,0.199,0.185,0.303,0.284,0.270,0.150,0.091,south-southeast,10.9,No
2019/05/18,16:10,0.197,0.185,0.300,0.282,0.273,0.151,0.092,south-southeast,10.7,No
2019/05/18,16:20,0.196,0.185,0.304,0.285,0.275,0.151,0.092,south-southeast,8.1,No
2019/05/18,16:30,0.198,0.186,0.301,0.283,0.273,0.149,0.092,south-southeast,9.0,No
2019/05/18,16:40,0.197,0.184,0.301,0.283,0.276,0.150,0.091,south-southeast,7.8,No
2019/05/18,16:50,0.197,0.186,0.301,0.284,0.275,0.150,0.091,south-southeast,6.2,No
2019/05/18,17:00,0.198,0.184,0.300,0.283,0.273,0.151,0.092,south,7.7,No
2019/05/18,17:10,0.196,0.186,0.302,0.284,0.275,0.150,0.091,south,8.1,No
2019/05/18,17:20,0.199,0.185,0.299,0.282,0.272,0.149,0.091,south-southeast,8.4,No
2019/05/18,17:30,0.197,0.186,0.302,0.285,0.276,0.151,0.092,south,8.6,No
2019/05/18,17:40,0.198,0.185,0.300,0.282,0.273,0.150,0.093,south-southeast,8.5,No
2019/05/18,17:50,0.199,0.185,0.303,0.285,0.275,0.151,0.092,south,8.1,No
2019/05/18,18:00,0.196,0.186,0.301,0.283,0.274,0.150,0.092,south,7.9,No
2019/05/18,18:10,0.199,0.186,0.302,0.284,0.274,0.151,0.091,south,7.6,No
2019/05/18,18:20,0.197,0.185,0.300,0.282,0.275,0.150,0.092,south,7.0,No
2019/05/18,18:30,0.199,0.185,0.301,0.285,0.273,0.150,0.091,south,5.9,No
2019/05/18,18:40,0.197,0.185,0.300,0.284,0.274,0.151,0.091,south,5.6,No
2019/05/18,18:50,0.197,0.186,0.301,0.283,0.273,0.150,0.091,south,5.9,No
2019/05/18,19:00,0.198,0.184,0.301,0.283,0.275,0.151,0.091,south,6.6,No
2019/05/18,19:10,0.197,0.187,0.300,0.283,0.272,0.149,0.091,south,6.7,No
2019/05/18,19:20,0.197,0.185,0.301,0.284,0.276,0.151,0.091,south,6.8,No
2019/05/18,19:30,0.198,0.185,0.301,0.283,0.272,0.150,0.091,south,6.3,No
2019/05/18,19:40,0.198,0.186,0.301,0.284,0.276,0.151,0.091,south,7.0,No
2019/05/18,19:50,0.197,0.186,0.300,0.283,0.272,0.150,0.092,south,6.6,No
2019/05/18,20:00,0.198,0.185,0.301,0.284,0.274,0.150,0.091,south,6.7,No
2019/05/18,20:10,0.197,0.186,0.301,0.285,0.274,0.151,0.092,south,6.7,No
2019/05/18,20:20,0.198,0.186,0.302,0.284,0.274,0.151,0.091,south,6.3,No
2019/05/18,20:30,0.196,0.186,0.300,0.284,0.273,0.151,0.092,south,5.9,No
2019/05/18,20:40,0.197,0.186,0.300,0.285,0.274,0.150,0.091,south,6.3,No
2019/05/18,20:50,0.196,0.185,0.300,0.284,0.275,0.150,0.091,south-southwest,4.8,No
2019/05/18,21:00,0.199,0.185,0.302,0.284,0.272,0.152,0.092,south-southwest,5.1,No
2019/05/18,21:10,0.197,0.185,0.300,0.283,0.274,0.151,0.091,south-southwest,7.5,No
2019/05/18,21:20,0.198,0.186,0.301,0.285,0.273,0.150,0.091,south-southwest,6.6,No
2019/05/18,21:30,0.197,0.185,0.301,0.284,0.274,0.150,0.092,south,7.3,No
2019/05/18,21:40,0.198,0.186,0.301,0.285,0.273,0.150,0.092,south,6.8,No
2019/05/18,21:50,0.198,0.185,0.301,0.282,0.276,0.151,0.092,south,6.5,No
2019/05/18,22:00,0.199,0.184,0.302,0.284,0.273,0.151,0.092,south,6.2,No
2019/05/18,22:10,0.197,0.186,0.301,0.283,0.274,0.151,0.092,south-southwest,6.6,No
2019/05/18,22:20,0.199,0.185,0.302,0.284,0.271,0.150,0.091,south-southwest,6.6,No
2019/05/18,22:30,0.195,0.184,0.301,0.283,0.275,0.151,0.091,south,5.7,No
2019/05/18,22:40,0.198,0.185,0.300,0.284,0.272,0.150,0.092,south-southwest,6.2,No
2019/05/18,22:50,0.196,0.186,0.301,0.284,0.275,0.151,0.092,south-southwest,6.4,No
2019/05/18,23:00,0.198,0.185,0.302,0.284,0.271,0.150,0.092,south-southwest,5.7,No
2019/05/18,23:10,0.197,0.186,0.300,0.283,0.275,0.151,0.092,south-southwest,5.9,No
2019/05/18,23:20,0.197,0.185,0.302,0.285,0.272,0.150,0.092,south-southwest,5.4,No
2019/05/18,23:30,0.197,0.185,0.302,0.283,0.275,0.151,0.091,south-southwest,6.0,No
2019/05/18,23:40,0.199,0.185,0.300,0.284,0.273,0.150,0.092,south-southwest,6.7,No
2019/05/18,23:50,0.196,0.185,0.301,0.284,0.274,0.151,0.091,south-southwest,6.2,No
